GW2873 Weather Reports


time (UTC)temp
C
wind
direction
speed
KPH
gust
KPH
rain 1hr
cm
rain 24hr
cm
rain mn
cm
humidity
%
barometer
mb
20260504081608 5 115 0.0 3.2 0.00 0.00 0.00 64 1011.2
20260504080103 5 190 0.0 9.7 0.00 0.00 0.00 62 1011.2
20260504044558 5 75 0.0 6.4 0.00 0.00 0.00 64 1011.0
20260504043059 5 0 0.0 6.4 0.00 0.00 0.00 65 1011.0
20260504041609 5 36 0.0 4.8 0.00 0.00 0.00 65 1011.1
20260504040059 5 0 0.0 1.6 0.00 0.00 0.00 64 1011.2
20260504034623 5 0 0.0 3.2 0.00 0.00 0.00 61 1011.2
20260504033055 6 0 0.0 1.6 0.00 0.00 0.00 60 1011.2
20260504031555 6 0 0.0 3.2 0.00 0.00 0.00 60 1011.2
20260504030058 6 0 0.0 3.2 0.00 0.00 0.00 58 1011.1
20260504024556 7 0 0.0 4.8 0.00 0.00 0.00 58 1011.3
20260504023058 7 0 1.6 4.8 0.00 0.00 0.00 57 1011.4
20260504021554 7 241 0.0 4.8 0.00 0.00 0.00 60 1011.4
20260504020117 7 0 0.0 3.2 0.00 0.00 0.00 59 1011.1
20260504014602 7 0 1.6 6.4 0.00 0.00 0.00 57 1011.0
20260504013123 7 181 0.0 6.4 0.00 0.00 0.00 60 1010.8
20260504011554 7 0 0.0 4.8 0.00 0.00 0.00 59 1010.8
20260504010055 7 0 0.0 6.4 0.00 0.00 0.00 57 1010.7
20260504004555 7 0 0.0 6.4 0.00 0.00 0.00 57 1010.7
20260504003054 7 0 0.0 1.6 0.00 0.00 0.00 56 1010.5
20260504001556 7 186 0.0 4.8 0.00 0.00 0.00 54 1010.3
20260504000107 8 0 0.0 6.4 0.00 0.00 0.00 54 1010.2
20260503234555 8 191 0.0 6.4 0.00 0.00 0.00 52 1010.2
20260503233058 8 258 0.0 4.8 0.00 0.00 0.00 51 1010.2
20260503231555 8 283 3.2 12.9 0.00 0.00 0.00 50 1010.1
20260503230104 9 203 3.2 9.7 0.00 0.00 0.00 49 1010.2
20260503224601 10 194 1.6 14.5 0.00 0.00 0.00 47 1010.1
20260503223056 10 0 4.8 14.5 0.00 0.00 0.00 46 1010.2
20260503221603 10 284 3.2 11.3 0.00 0.00 0.00 45 1010.0
20260503220055 11 345 4.8 16.1 0.00 0.00 0.00 44 1010.2
20260503214600 11 340 4.8 14.5 0.00 0.00 0.00 44 1010.1
20260503213102 11 227 3.2 16.1 0.00 0.00 0.00 43 1010.0
20260503211559 12 314 3.2 16.1 0.00 0.00 0.00 40 1009.8
20260503210056 11 248 4.8 20.9 0.00 0.00 0.00 38 1009.7
20260503204619 11 150 3.2 12.9 0.00 0.00 0.00 38 1009.6
20260503203059 12 250 3.2 17.7 0.00 0.00 0.00 34 1009.5
20260503201555 13 258 6.4 14.5 0.00 0.00 0.00 33 1009.6
20260503200101 12 179 6.4 24.1 0.00 0.00 0.00 35 1009.7
20260503194602 12 185 8.0 29.0 0.00 0.00 0.00 33 1009.8
20260503193108 13 303 6.4 22.5 0.00 0.00 0.00 31 1010.0
20260503191614 12 341 8.0 20.9 0.00 0.00 0.00 31 1010.3
20260503190057 13 145 4.8 24.1 0.00 0.00 0.00 31 1010.3
20260503184600 13 318 4.8 22.5 0.00 0.00 0.00 31 1010.6
20260503183054 13 302 6.4 17.7 0.00 0.00 0.00 31 1010.7
20260503181555 13 298 3.2 24.1 0.00 0.00 0.00 34 1010.7
20260503174556 11 324 6.4 25.7 0.00 0.00 0.00 34 1011.0
20260503173100 12 136 4.8 19.3 0.00 0.00 0.00 34 1011.1
20260503171558 12 278 6.4 17.7 0.00 0.00 0.00 33 1011.2
20260503170111 11 355 4.8 17.7 0.00 0.00 0.00 33 1011.1
20260503160109 7 223 3.2 17.7 0.00 0.00 0.00 42 1011.7